カタログに戻る

STARLINK-34070

運用中通信VLEO
NORAD 63913·PAYLOAD·🇺🇸 United States

打ち上げ May 10, 2025 から Cape Canaveral Space Force Station

Loading…

次のパス (今後24時間)

TLE

最新Source: CelesTrak SupGP

元期: Sep 14, 2026, 21:12 UTC

1 63913C 25095Z   26257.88381944  .00002389  00000+0  86515-4 0  2577
2 63913  42.9999 187.7235 0001318 262.0858  69.0320 15.27584925    12

AllMySatでSTARLINK-34070をリアルタイム追跡

Download on the App Store